Location: Geremba
(10.4250°N, 67.2394°W)
Time: 22:33:30
(UTC+00:00)

Cosmos 1484 Rocket - Pass Details

Date: 23 May 2024
Orbit: 480 x 520 km, 97.6° (Epoch: 25 June)

Event Time Altitude Azimuth Distance (km) Brightness Sun altitude
Rises 08:28:25 0° 16° (NNE) 2,615 6.9 -22.8°
Reaches altitude 10° 08:30:30 10° 19° (NNE) 1,735 6.0 -22.3°
Maximum altitude 08:34:13 64° 101° (E) 575 3.0 -21.5°
Enters shadow 08:35:27 39° 167° (SSE) 794 3.4 -21.2°
